Regional Weather Roundup
Issued by NWS

Home | Current Version | Previous Version | Graphics & Text | Print | Product List | Glossary On
Versions: 1 2 3 4 5 6 7 8 9 10 11 12 13 14 15 16 17 18 19 20 21 22 23 24 25 26 27 28 29 30 31 32 33 34 35 36 37 38 39 40 41 42 43 44 45 46 47 48 49 50
000
ASUS43 KFSD 170910
RWRSD

WEATHER ROUNDUP FOR SOUTH DAKOTA
NATIONAL WEATHER SERVICE SIOUX FALLS SD
400 AM CDT WED SEP 17 2014

NOTE: "FAIR" INDICATES FEW OR NO CLOUDS BELOW 12,000 FEET WITH NO
SIGNIFICANT WEATHER AND/OR OBSTRUCTIONS TO VISIBILITY.


SDZ001>005-009-010-012>017-171000-
NORTHWEST AND NORTH CENTRAL SOUTH DAKOTA

CITY           SKY/WX    TMP DP  RH WIND       PRES   REMARKS
BUFFALO          N/A     56  45  66 NE8       29.88F
FAITH            N/A     51  48  89 N6        29.92S
MOBRIDGE       PTCLDY    50  48  93 NE6       29.89S
$$

SDZ012>016-024>037-041>051-057-063-072>074-171000-
SOUTHWEST AND SOUTH CENTRAL SOUTH DAKOTA

CITY           SKY/WX    TMP DP  RH WIND       PRES   REMARKS
RAPID CTY ARPT CLEAR     55  43  63 NW8       29.93F
PIERRE         CLEAR     52  49  89 CALM      29.89S
CUSTER         PTCLDY    50  36  58 NW6       30.09F
ELLSWORTH AFB  PTCLDY    53  44  73 NW10      29.93F
PHILIP         CLEAR     46  44  93 W6        29.91S
PINE RIDGE     PTCLDY    48  46  93 E3        29.96F
WINNER         FAIR      57  53  86 CALM      29.90F
$$

SDZ004>011-016>023-039-040-171000-
NORTHEAST SOUTH DAKOTA

CITY           SKY/WX    TMP DP  RH WIND       PRES   REMARKS
ABERDEEN       FOG       42  42 100 CALM      29.91F VSB 1
WATERTOWN      CLEAR     50  48  93 S6        29.92S
SISSETON         N/A     54  51  90 SW5       29.89F
$$

SDZ017-020-022-023-036>040-048>070-171000-
SOUTHEAST SOUTH DAKOTA

CITY           SKY/WX    TMP DP  RH WIND       PRES   REMARKS
SIOUX FALLS    PTCLDY    55  49  80 S5        29.93F
HURON          PTCLDY    52  50  93 E3        29.90S
CHAMBERLAIN    CLEAR     47  46  99 CALM      29.90S FOG
MITCHELL       CLEAR     49  49 100 SE6       29.91F
YANKTON        CLEAR     52  48  87 SE5       29.93F
$$

ABBREVIATIONS USED IN REMARKS
   TC - TEMPERATURE IN CELSIUS
  WCI - WIND CHILL INDEX
   HX - HEAT INDEX
  VSB - VISIBILITY



USA.gov is the U.S. government's official web portal to all federal, state and local government web resources and services.